GW4400 Weather Reports


time (UTC)temp
C
wind
direction
speed
KPH
gust
KPH
rain 1hr
cm
rain 24hr
cm
rain mn
cm
humidity
%
barometer
mb
20260504110540 2 226 0.0 0.0 0.00 0.00 0.00 95 1017.5
20260504100529 2 226 0.0 0.0 0.00 0.00 0.00 95 1017.2
20260504081510 2 226 0.0 0.0 0.00 0.00 0.00 95 1017.1
20260504081010 2 226 0.0 0.0 0.00 0.00 0.00 95 1017.0
20260504080509 2 226 0.0 0.0 0.00 0.00 0.00 95 1017.0
20260504050535 5 226 0.0 0.0 0.00 0.00 0.00 94 1018.1
20260504045533 5 226 0.0 0.0 0.00 0.00 0.00 94 1018.1
20260504045034 5 226 0.0 0.0 0.00 0.00 0.00 94 1017.9
20260504044532 4 226 0.0 0.0 0.00 0.00 0.00 93 1017.9
20260504044031 5 226 0.0 0.0 0.00 0.00 0.00 93 1017.9
20260504043530 5 226 0.0 0.0 0.00 0.00 0.00 93 1017.9
20260504043028 5 226 0.0 0.0 0.00 0.00 0.00 93 1017.8
20260504042528 5 226 0.0 0.0 0.00 0.00 0.00 93 1017.7
20260504042027 5 226 0.0 0.0 0.00 0.00 0.00 93 1017.7
20260504041525 5 226 0.0 0.0 0.00 0.00 0.00 93 1017.7
20260504041024 5 226 0.0 0.0 0.00 0.00 0.00 93 1017.7
20260504040522 5 226 0.0 0.0 0.00 0.00 0.00 93 1017.8
20260504040024 5 226 0.0 0.0 0.00 0.00 0.00 93 1017.8
20260504035524 5 226 0.0 0.0 0.00 0.00 0.00 93 1017.8
20260504035021 5 226 0.0 0.0 0.00 0.00 0.00 92 1017.8
20260504034530 5 226 0.0 0.0 0.00 0.00 0.00 92 1017.8
20260504034018 6 226 0.0 0.0 0.00 0.00 0.00 92 1017.6
20260504033518 6 226 0.0 0.0 0.00 0.00 0.00 93 1017.6
20260504033033 6 226 0.0 0.0 0.00 0.00 0.00 93 1017.7
20260504032518 6 226 0.0 0.0 0.00 0.00 0.00 92 1017.6
20260504032017 6 226 0.0 0.0 0.00 0.00 0.00 92 1017.5
20260504031517 6 226 0.0 0.0 0.00 0.00 0.00 92 1017.6
20260504031016 6 226 0.0 0.0 0.00 0.00 0.00 92 1017.6
20260504030515 6 226 0.0 0.0 0.00 0.00 0.00 92 1017.7
20260504030015 6 226 0.0 0.0 0.00 0.00 0.00 91 1017.7
20260504025514 6 226 0.0 0.0 0.00 0.00 0.00 91 1017.7
20260504025019 6 226 0.0 0.0 0.00 0.00 0.00 91 1017.7
20260504024534 6 226 0.0 0.0 0.00 0.00 0.00 91 1017.7
20260504024012 6 226 0.0 0.0 0.00 0.00 0.00 91 1017.7
20260504023511 7 226 0.0 0.0 0.00 0.00 0.00 91 1017.6
20260504023011 7 226 0.0 0.0 0.00 0.00 0.00 91 1017.5
20260504022511 7 226 0.0 0.0 0.00 0.00 0.00 91 1017.5
20260504022014 7 226 0.0 0.0 0.00 0.00 0.00 90 1017.5
20260504021510 7 226 0.0 0.0 0.00 0.00 0.00 90 1017.4
20260504021008 7 226 0.0 0.0 0.00 0.00 0.00 90 1017.4
20260504020508 7 226 0.0 0.0 0.00 0.00 0.00 89 1017.2
20260504020012 7 226 0.0 0.0 0.00 0.00 0.00 90 1017.2
20260504015507 7 294 0.0 0.0 0.00 0.00 0.00 89 1017.2
20260504015007 8 294 0.0 0.0 0.00 0.00 0.00 89 1017.1
20260504014506 8 294 0.0 0.0 0.00 0.00 0.00 89 1017.1
20260504014007 8 294 0.0 0.0 0.00 0.00 0.00 88 1017.1
20260504013506 8 295 0.0 0.0 0.00 0.00 0.00 88 1017.0
20260504013005 8 294 0.0 0.0 0.00 0.00 0.00 88 1017.0
20260504012504 8 294 0.0 0.0 0.00 0.00 0.00 88 1016.8
20260504012004 8 295 0.0 0.0 0.00 0.00 0.00 87 1016.8
20260504011504 8 294 0.0 0.0 0.00 0.00 0.00 87 1016.8
20260504011003 9 294 0.0 0.0 0.00 0.00 0.00 85 1016.7
20260504010502 9 294 0.0 0.0 0.00 0.00 0.00 84 1016.7
20260504010002 10 295 0.0 0.0 0.00 0.00 0.00 84 1016.6
20260504005501 10 295 0.0 0.0 0.00 0.00 0.00 83 1016.6
20260504005002 10 294 0.0 0.0 0.00 0.00 0.00 83 1016.5
20260504004622 10 294 0.0 0.0 0.00 0.00 0.00 82 1016.5
20260504004059 11 295 0.0 0.0 0.00 0.00 0.00 81 1016.4
20260504003558 11 295 0.0 0.0 0.00 0.00 0.00 80 1016.3
20260504003102 11 294 0.0 0.0 0.00 0.00 0.00 80 1016.2
20260504002558 11 295 0.0 0.0 0.00 0.00 0.00 80 1016.3
20260504002059 12 294 0.0 0.0 0.00 0.00 0.00 80 1016.4
20260504001601 12 294 0.0 0.0 0.00 0.00 0.00 77 1016.3
20260504001057 13 295 0.0 0.0 0.00 0.00 0.00 75 1016.3
20260504000554 13 295 0.0 0.0 0.00 0.00 0.00 75 1016.4
20260504000055 13 294 0.0 0.0 0.00 0.00 0.00 74 1016.5
20260503235553 14 294 0.0 0.0 0.00 0.00 0.00 74 1016.4
20260503235055 15 293 0.0 0.0 0.00 0.00 0.00 72 1016.4
20260503234552 15 293 0.0 0.0 0.00 0.00 0.00 69 1016.5
20260503234053 16 293 0.0 0.0 0.00 0.00 0.00 67 1016.4
20260503233551 17 293 0.0 0.0 0.00 0.00 0.00 62 1016.3
20260503233051 18 295 0.0 0.0 0.00 0.00 0.00 56 1016.4
20260503232549 19 294 0.0 0.0 0.00 0.00 0.00 51 1016.3
20260503232049 20 294 0.0 0.0 0.00 0.00 0.00 53 1016.3
20260503231554 20 312 0.0 0.0 0.00 0.00 0.00 48 1016.4
20260503231052 20 309 0.0 0.0 0.00 0.00 0.00 54 1016.4
20260503230547 20 276 0.0 0.0 0.00 0.00 0.00 46 1016.4
20260503230050 20 250 0.0 0.0 0.00 0.00 0.00 46 1016.4
20260503225644 20 282 0.0 0.0 0.00 0.00 0.00 47 1016.4
20260503225042 20 322 0.0 0.0 0.00 0.00 0.00 49 1016.5
20260503224542 19 329 0.0 0.0 0.00 0.00 0.00 48 1016.4
20260503224041 19 288 0.0 0.0 0.00 0.00 0.00 45 1016.6
20260503223540 19 311 0.0 0.0 0.00 0.00 0.00 48 1016.5
20260503223040 20 297 0.0 0.0 0.00 0.00 0.00 48 1016.6
20260503222538 20 278 0.0 0.0 0.00 0.00 0.00 48 1016.6
20260503222040 20 290 0.0 0.0 0.00 0.00 0.00 48 1016.7
20260503221539 20 287 0.0 0.0 0.00 0.00 0.00 48 1016.7
20260503221039 20 264 0.0 0.0 0.00 0.00 0.00 50 1016.6
20260503220536 19 240 0.0 1.6 0.00 0.00 0.00 50 1016.8
20260503220039 19 68 0.0 1.6 0.00 0.00 0.00 50 1016.8
20260503215535 19 302 0.0 1.6 0.00 0.00 0.00 49 1016.7
20260503215034 20 345 0.0 1.6 0.00 0.00 0.00 51 1016.8
20260503214534 20 51 0.0 4.8 0.00 0.00 0.00 52 1016.7
20260503214032 20 354 0.0 1.6 0.00 0.00 0.00 49 1016.7
20260503213532 20 298 0.0 0.0 0.00 0.00 0.00 50 1016.8
20260503213031 20 265 0.0 0.0 0.00 0.00 0.00 49 1016.8
20260503212533 20 288 0.0 4.8 0.00 0.00 0.00 51 1016.9
20260503212030 19 24 0.0 4.8 0.00 0.00 0.00 53 1016.9
20260503211537 19 340 0.0 11.3 0.00 0.00 0.00 51 1016.9
20260503211028 19 356 0.0 11.3 0.00 0.00 0.00 51 1017.0
20260503210527 19 31 0.0 1.6 0.00 0.00 0.00 51 1017.0
20260503210030 19 59 0.0 4.8 0.00 0.00 0.00 49 1017.1
20260503205533 19 292 0.0 4.8 0.00 0.00 0.00 53 1017.2
20260503205026 20 297 0.0 3.2 0.00 0.00 0.00 47 1017.3
20260503204524 20 89 0.0 3.2 0.00 0.00 0.00 50 1017.2
20260503204022 19 9 0.0 4.8 0.00 0.00 0.00 52 1017.3
20260503203522 19 310 0.0 4.8 0.00 0.00 0.00 49 1017.3
20260503203022 19 307 0.0 1.6 0.00 0.00 0.00 49 1017.3
20260503202520 18 288 0.0 4.8 0.00 0.00 0.00 50 1017.5
20260503202020 19 345 0.0 4.8 0.00 0.00 0.00 48 1017.6
20260503201518 19 194 0.0 3.2 0.00 0.00 0.00 47 1017.8
20260503201019 18 331 0.0 3.2 0.00 0.00 0.00 51 1017.7
20260503200516 18 294 0.0 6.4 0.00 0.00 0.00 52 1017.8
20260503200016 18 283 0.0 6.4 0.00 0.00 0.00 50 1017.9
20260503195517 18 246 0.0 4.8 0.00 0.00 0.00 47 1017.9
20260503195014 18 47 0.0 4.8 0.00 0.00 0.00 53 1018.2
20260503194514 18 293 0.0 0.0 0.00 0.00 0.00 52 1018.3
20260503194014 18 324 0.0 0.0 0.00 0.00 0.00 53 1018.3
20260503193512 18 285 0.0 1.6 0.00 0.00 0.00 55 1018.4
20260503193029 18 249 0.0 1.6 0.00 0.00 0.00 53 1018.5
20260503192509 18 25 0.0 1.6 0.00 0.00 0.00 55 1018.4
20260503192010 18 57 0.0 6.4 0.00 0.00 0.00 52 1018.5
20260503191507 18 293 0.0 6.4 0.00 0.00 0.00 54 1018.7
20260503191007 18 298 0.0 8.0 0.00 0.00 0.00 55 1018.7
20260503190507 18 248 0.0 3.2 0.00 0.00 0.00 55 1018.7
20260503190013 18 30 0.0 3.2 0.00 0.00 0.00 56 1018.8
20260503185504 18 311 0.0 6.4 0.00 0.00 0.00 51 1018.9
20260503185005 18 223 0.0 6.4 0.00 0.00 0.00 51 1019.0
20260503184504 17 298 0.0 11.3 0.00 0.00 0.00 53 1019.1
20260503184003 18 302 0.0 14.5 0.00 0.00 0.00 54 1019.0
20260503183502 18 238 0.0 14.5 0.00 0.00 0.00 50 1019.1
20260503183001 18 321 0.0 1.6 0.00 0.00 0.00 60 1019.0
20260503182603 18 314 0.0 1.6 0.00 0.00 0.00 53 1019.1
20260503182057 18 318 0.0 1.6 0.00 0.00 0.00 58 1019.1
20260503181559 17 273 0.0 3.2 0.00 0.00 0.00 55 1019.1
20260503181055 17 316 0.0 3.2 0.00 0.00 0.00 56 1019.2
20260503180553 17 2 0.0 3.2 0.00 0.00 0.00 60 1019.2
20260503180053 17 323 0.0 3.2 0.00 0.00 0.00 58 1019.3
20260503175551 17 34 0.0 0.0 0.00 0.00 0.00 59 1019.2
20260503175050 17 255 0.0 0.0 0.00 0.00 0.00 57 1019.3
20260503174605 17 302 0.0 1.6 0.00 0.00 0.00 57 1019.3
20260503174049 17 274 0.0 0.0 0.00 0.00 0.00 58 1019.3
20260503173548 17 314 0.0 0.0 0.00 0.00 0.00 57 1019.3
20260503173049 17 298 0.0 9.7 0.00 0.00 0.00 56 1019.5
20260503172549 17 288 0.0 9.7 0.00 0.00 0.00 62 1019.4
20260503172046 17 244 0.0 0.0 0.00 0.00 0.00 60 1019.6
20260503171545 17 358 0.0 6.4 0.00 0.00 0.00 57 1019.6
20260503171045 17 274 0.0 6.4 0.00 0.00 0.00 56 1019.8
20260503170543 17 338 0.0 0.0 0.00 0.00 0.00 59 1019.8
20260503150518 15 347 0.0 0.0 0.00 0.00 0.00 63 1020.6
20260503131039 10 120 0.0 0.0 0.00 0.00 0.00 88 1020.2
20260503130538 10 126 0.0 0.0 0.00 0.00 0.00 89 1020.3